TAM3510 SBFZ-SBSL

Flight info

Callsign TAM3510
Flight time 1h 0m
Altitude 34000
Route ISUPI UZ81 SLI
Aircraft A321/M-SDE3FGHIRWY/LB1

Departure

Time 2026-05-03 21:05
Airport Pinto Martins International Airport (SBFZ)

Arrival

Time 2026-05-03 22:05
Airport Marechal Cunha Machado International Airport (SBSL)
Time Latitude Longitude Altitude Speed Heading
2026-05-03 20:41 -3.77872 -38.53855 92 ft 0 kts 217°
2026-05-03 20:58 -3.77868 -38.53851 94 ft 2 kts 214°
2026-05-03 20:58 -3.77854 -38.53842 94 ft 2 kts 216°
2026-05-03 20:58 -3.77841 -38.53832 92 ft 2 kts 217°
2026-05-03 20:58 -3.77828 -38.53822 90 ft 2 kts 217°
2026-05-03 20:59 -3.77815 -38.53811 91 ft 2 kts 233°
2026-05-03 20:59 -3.77808 -38.53797 90 ft 2 kts 273°
2026-05-03 20:59 -3.77810 -38.53785 91 ft 1 kts 314°
2026-05-03 20:59 -3.77811 -38.53783 91 ft 0 kts 317°
2026-05-03 21:01 -3.77809 -38.53786 91 ft 3 kts 317°
2026-05-03 21:01 -3.77751 -38.53842 92 ft 19 kts 304°
2026-05-03 21:02 -3.77709 -38.53980 95 ft 20 kts 284°
2026-05-03 21:02 -3.77674 -38.54113 92 ft 19 kts 285°
2026-05-03 21:02 -3.77641 -38.54236 91 ft 17 kts 285°
2026-05-03 21:02 -3.77623 -38.54303 92 ft 12 kts 284°
2026-05-03 21:03 -3.77564 -38.54372 93 ft 10 kts 348°
2026-05-03 21:03 -3.77504 -38.54384 93 ft 8 kts 352°
2026-05-03 21:03 -3.77457 -38.54380 94 ft 15 kts 12°
2026-05-03 21:03 -3.77355 -38.54351 94 ft 11 kts 46°
2026-05-03 21:04 -3.77361 -38.54275 94 ft 10 kts 103°
2026-05-03 21:04 -3.77414 -38.54074 96 ft 62 kts 105°
2026-05-03 21:04 -3.77513 -38.53706 96 ft 102 kts 105°
2026-05-03 21:04 -3.77741 -38.52851 96 ft 149 kts 104°
2026-05-03 21:05 -3.78025 -38.51769 406 ft 161 kts 105°
2026-05-03 21:05 -3.78333 -38.50688 888 ft 161 kts 107°
2026-05-03 21:05 -3.78651 -38.49617 1366 ft 165 kts 107°
2026-05-03 21:05 -3.78990 -38.48445 1529 ft 185 kts 106°
2026-05-03 21:06 -3.79358 -38.47147 1717 ft 198 kts 106°
2026-05-03 21:06 -3.79757 -38.45773 1838 ft 218 kts 107°
2026-05-03 21:06 -3.80192 -38.44215 2028 ft 244 kts 105°
2026-05-03 21:06 -3.80204 -38.42488 2571 ft 257 kts 73°
2026-05-03 21:07 -3.79207 -38.40985 3274 ft 268 kts 42°
2026-05-03 21:07 -3.77517 -38.40228 3957 ft 278 kts
2026-05-03 21:07 -3.75589 -38.40516 4608 ft 288 kts 334°
2026-05-03 21:07 -3.74026 -38.41782 5231 ft 292 kts 311°
2026-05-03 21:08 -3.72762 -38.43391 5928 ft 294 kts 305°
2026-05-03 21:08 -3.71618 -38.45079 6558 ft 297 kts 303°
2026-05-03 21:08 -3.70485 -38.46822 7191 ft 299 kts 303°
2026-05-03 21:08 -3.69334 -38.48573 7826 ft 301 kts 304°
2026-05-03 21:09 -3.68168 -38.50299 8451 ft 303 kts 305°
2026-05-03 21:09 -3.66956 -38.52043 9089 ft 305 kts 306°
2026-05-03 21:09 -3.65722 -38.53788 9719 ft 307 kts 306°
2026-05-03 21:09 -3.64693 -38.55644 10226 ft 312 kts 294°
2026-05-03 21:10 -3.63813 -38.57716 10345 ft 332 kts 293°
2026-05-03 21:10 -3.62895 -38.59910 10467 ft 351 kts 293°
2026-05-03 21:10 -3.61935 -38.62216 10745 ft 363 kts 293°
2026-05-03 21:10 -3.60958 -38.64569 11236 ft 367 kts 293°
2026-05-03 21:11 -3.59969 -38.66944 11763 ft 370 kts 293°
2026-05-03 21:11 -3.58986 -38.69304 12300 ft 373 kts 293°
2026-05-03 21:11 -3.57978 -38.71721 12835 ft 376 kts 293°
2026-05-03 21:11 -3.56964 -38.74153 13370 ft 379 kts 294°
2026-05-03 21:12 -3.55950 -38.76576 13846 ft 383 kts 294°
2026-05-03 21:12 -3.54917 -38.79042 14301 ft 386 kts 294°
2026-05-03 21:12 -3.53870 -38.81538 14783 ft 388 kts 294°
2026-05-03 21:12 -3.52832 -38.84018 15240 ft 391 kts 294°
2026-05-03 21:13 -3.51779 -38.86539 15660 ft 393 kts 294°
2026-05-03 21:13 -3.50720 -38.89072 16059 ft 395 kts 294°
2026-05-03 21:13 -3.49652 -38.91623 16436 ft 397 kts 294°
2026-05-03 21:13 -3.48578 -38.94191 16823 ft 399 kts 293°
2026-05-03 21:14 -3.47514 -38.96741 17182 ft 401 kts 293°
2026-05-03 21:14 -3.46434 -38.99329 17550 ft 403 kts 293°
2026-05-03 21:14 -3.45345 -39.01931 17911 ft 405 kts 293°
2026-05-03 21:14 -3.44262 -39.04516 18242 ft 408 kts 294°
2026-05-03 21:15 -3.43159 -39.07146 18532 ft 410 kts 294°
2026-05-03 21:15 -3.42052 -39.09790 18825 ft 411 kts 293°
2026-05-03 21:15 -3.40941 -39.12439 19114 ft 413 kts 293°
2026-05-03 21:15 -3.39822 -39.15106 19398 ft 415 kts 293°
2026-05-03 21:16 -3.38703 -39.17776 19673 ft 417 kts 293°
2026-05-03 21:16 -3.37593 -39.20428 19947 ft 418 kts 293°
2026-05-03 21:16 -3.36463 -39.23127 20216 ft 420 kts 293°
2026-05-03 21:16 -3.35327 -39.25845 20491 ft 422 kts 293°
2026-05-03 21:17 -3.34189 -39.28561 20751 ft 424 kts 293°
2026-05-03 21:17 -3.33430 -39.30372 20934 ft 425 kts 293°
2026-05-03 21:17 -3.31906 -39.34015 21288 ft 427 kts 293°
2026-05-03 21:17 -3.30763 -39.36745 21545 ft 429 kts 293°
2026-05-03 21:18 -3.29644 -39.39511 21794 ft 431 kts 289°
2026-05-03 21:18 -3.28915 -39.42446 22045 ft 433 kts 278°
2026-05-03 21:18 -3.28725 -39.45422 22285 ft 435 kts 268°
2026-05-03 21:18 -3.28935 -39.48453 22525 ft 436 kts 265°
2026-05-03 21:19 -3.29167 -39.51492 22777 ft 438 kts 265°
2026-05-03 21:19 -3.29388 -39.54507 23021 ft 439 kts 265°
2026-05-03 21:19 -3.29608 -39.57563 23266 ft 441 kts 266°
2026-05-03 21:19 -3.29827 -39.60641 23512 ft 442 kts 265°
2026-05-03 21:20 -3.30043 -39.63677 23721 ft 443 kts 265°
2026-05-03 21:20 -3.30265 -39.66762 23920 ft 444 kts 265°
2026-05-03 21:20 -3.30490 -39.69859 24116 ft 445 kts 265°
2026-05-03 21:20 -3.30719 -39.72958 24320 ft 447 kts 265°
2026-05-03 21:21 -3.30950 -39.76039 24520 ft 448 kts 265°
2026-05-03 21:21 -3.31180 -39.79167 24717 ft 449 kts 265°
2026-05-03 21:21 -3.31409 -39.82293 24915 ft 450 kts 265°
2026-05-03 21:21 -3.31637 -39.85428 25114 ft 452 kts 265°
2026-05-03 21:22 -3.31863 -39.88572 25309 ft 453 kts 266°
2026-05-03 21:22 -3.32085 -39.91686 25493 ft 454 kts 266°
2026-05-03 21:22 -3.32313 -39.94857 25685 ft 455 kts 265°
2026-05-03 21:22 -3.32544 -39.98027 25881 ft 457 kts 265°
2026-05-03 21:23 -3.32780 -40.01209 26064 ft 458 kts 265°
2026-05-03 21:23 -3.33014 -40.04355 26252 ft 459 kts 265°
2026-05-03 21:23 -3.33250 -40.07560 26440 ft 460 kts 265°
2026-05-03 21:23 -3.33482 -40.10753 26621 ft 461 kts 266°
2026-05-03 21:24 -3.33715 -40.13958 26798 ft 462 kts 266°
2026-05-03 21:24 -3.33945 -40.17136 26972 ft 464 kts 266°
2026-05-03 21:24 -3.34179 -40.20369 27152 ft 465 kts 265°
2026-05-03 21:24 -3.34418 -40.23628 27331 ft 466 kts 265°
2026-05-03 21:25 -3.34652 -40.26824 27505 ft 467 kts 265°
2026-05-03 21:25 -3.34889 -40.30088 27671 ft 468 kts 265°
2026-05-03 21:25 -3.35122 -40.33356 27834 ft 470 kts 266°
2026-05-03 21:25 -3.35354 -40.36593 28012 ft 471 kts 266°
2026-05-03 21:26 -3.35591 -40.39866 28174 ft 472 kts 265°
2026-05-03 21:26 -3.35832 -40.43154 28343 ft 473 kts 265°
2026-05-03 21:26 -3.36072 -40.46445 28500 ft 474 kts 265°
2026-05-03 21:26 -3.36303 -40.49705 28680 ft 474 kts 267°
2026-05-03 21:27 -3.36224 -40.53001 28828 ft 475 kts 276°
2026-05-03 21:27 -3.35656 -40.56267 28968 ft 476 kts 282°
2026-05-03 21:27 -3.34970 -40.59526 29110 ft 477 kts 282°
2026-05-03 21:27 -3.34301 -40.62747 29249 ft 478 kts 282°
2026-05-03 21:28 -3.33630 -40.66017 29396 ft 479 kts 282°
2026-05-03 21:28 -3.32960 -40.69293 29538 ft 479 kts 282°
2026-05-03 21:28 -3.32298 -40.72522 29715 ft 480 kts 281°
2026-05-03 21:28 -3.31621 -40.75804 29884 ft 480 kts 281°
2026-05-03 21:29 -3.30946 -40.79085 30027 ft 481 kts 281°
2026-05-03 21:29 -3.30270 -40.82379 30151 ft 482 kts 281°
2026-05-03 21:29 -3.29595 -40.85679 30281 ft 483 kts 281°
2026-05-03 21:29 -3.28919 -40.88970 30454 ft 482 kts 281°
2026-05-03 21:30 -3.28247 -40.92213 30667 ft 481 kts 281°
2026-05-03 21:30 -3.27568 -40.95480 30903 ft 479 kts 281°
2026-05-03 21:30 -3.26889 -40.98749 31132 ft 477 kts 281°
2026-05-03 21:30 -3.26216 -41.02000 31345 ft 476 kts 281°
2026-05-03 21:31 -3.25553 -41.05216 31536 ft 475 kts 281°
2026-05-03 21:31 -3.24887 -41.08464 31739 ft 474 kts 281°
2026-05-03 21:31 -3.24230 -41.11675 31910 ft 474 kts 282°
2026-05-03 21:31 -3.23565 -41.14888 32132 ft 473 kts 282°
2026-05-03 21:32 -3.22895 -41.18102 32354 ft 471 kts 282°
2026-05-03 21:32 -3.22225 -41.21318 32582 ft 469 kts 282°
2026-05-03 21:32 -3.21559 -41.24521 32798 ft 468 kts 282°
2026-05-03 21:32 -3.20906 -41.27676 33007 ft 467 kts 282°
2026-05-03 21:33 -3.20252 -41.30856 33219 ft 465 kts 282°
2026-05-03 21:33 -3.19598 -41.34030 33419 ft 464 kts 282°
2026-05-03 21:33 -3.18943 -41.37193 33634 ft 463 kts 282°
2026-05-03 21:33 -3.18293 -41.40310 33853 ft 461 kts 283°
2026-05-03 21:34 -3.16997 -41.46559 33951 ft 454 kts 283°
2026-05-03 21:34 -3.15719 -41.52741 33947 ft 451 kts 283°
2026-05-03 21:35 -3.14450 -41.58858 33942 ft 450 kts 282°
2026-05-03 21:35 -3.13186 -41.64980 33938 ft 450 kts 282°
2026-05-03 21:36 -3.11904 -41.71132 33935 ft 450 kts 283°
2026-05-03 21:36 -3.10618 -41.77284 33938 ft 450 kts 283°
2026-05-03 21:37 -3.09365 -41.83412 33948 ft 450 kts 282°
2026-05-03 21:37 -3.08135 -41.89535 33955 ft 450 kts 282°
2026-05-03 21:38 -3.06896 -41.95643 33957 ft 449 kts 282°
2026-05-03 21:38 -3.05639 -42.01775 33955 ft 449 kts 282°
2026-05-03 21:39 -3.04392 -42.07876 33959 ft 449 kts 282°
2026-05-03 21:39 -3.03152 -42.13980 33959 ft 449 kts 282°
2026-05-03 21:40 -3.01886 -42.20101 33952 ft 449 kts 282°
2026-05-03 21:40 -3.00589 -42.26242 33944 ft 449 kts 282°
2026-05-03 21:41 -2.99304 -42.32336 33949 ft 451 kts 282°
2026-05-03 21:41 -2.98009 -42.38488 33953 ft 451 kts 282°
2026-05-03 21:42 -2.96724 -42.44607 33947 ft 452 kts 282°
2026-05-03 21:42 -2.95425 -42.50783 33942 ft 452 kts 282°
2026-05-03 21:43 -2.94137 -42.56912 33949 ft 453 kts 282°
2026-05-03 21:43 -2.92835 -42.63098 33301 ft 455 kts 282°
2026-05-03 21:44 -2.92181 -42.66207 32741 ft 453 kts 282°
2026-05-03 21:44 -2.91535 -42.69280 32195 ft 451 kts 281°
2026-05-03 21:44 -2.90897 -42.72309 31663 ft 449 kts 281°
2026-05-03 21:44 -2.90246 -42.75371 31124 ft 447 kts 281°
2026-05-03 21:45 -2.89595 -42.78424 30596 ft 446 kts 281°
2026-05-03 21:45 -2.88962 -42.81426 30074 ft 445 kts 281°
2026-05-03 21:45 -2.88328 -42.84453 29492 ft 443 kts 281°
2026-05-03 21:45 -2.87695 -42.87461 28979 ft 439 kts 281°
2026-05-03 21:46 -2.87064 -42.90449 28450 ft 436 kts 281°
2026-05-03 21:46 -2.86448 -42.93375 27952 ft 433 kts 281°
2026-05-03 21:46 -2.85833 -42.96308 27455 ft 430 kts 281°
2026-05-03 21:46 -2.85219 -42.99231 26964 ft 427 kts 281°
2026-05-03 21:47 -2.84608 -43.02139 26473 ft 424 kts 281°
2026-05-03 21:47 -2.84003 -43.05022 25994 ft 421 kts 281°
2026-05-03 21:47 -2.83398 -43.07883 25535 ft 418 kts 281°
2026-05-03 21:47 -2.82806 -43.10691 25086 ft 415 kts 281°
2026-05-03 21:48 -2.82212 -43.13519 24635 ft 412 kts 281°
2026-05-03 21:48 -2.81619 -43.16326 24181 ft 410 kts 281°
2026-05-03 21:48 -2.81028 -43.19120 23733 ft 408 kts 281°
2026-05-03 21:48 -2.80448 -43.21858 23241 ft 406 kts 281°
2026-05-03 21:49 -2.79864 -43.24613 22777 ft 402 kts 281°
2026-05-03 21:49 -2.79288 -43.27335 22329 ft 398 kts 281°
2026-05-03 21:49 -2.78721 -43.30030 21883 ft 394 kts 281°
2026-05-03 21:49 -2.78164 -43.32683 21441 ft 392 kts 281°
2026-05-03 21:50 -2.77602 -43.35344 20980 ft 389 kts 281°
2026-05-03 21:50 -2.77043 -43.37999 20519 ft 388 kts 281°
2026-05-03 21:50 -2.76486 -43.40641 20069 ft 386 kts 281°
2026-05-03 21:50 -2.75933 -43.43265 19621 ft 385 kts 281°
2026-05-03 21:51 -2.75385 -43.45856 19174 ft 384 kts 281°
2026-05-03 21:51 -2.74830 -43.48480 18722 ft 384 kts 281°
2026-05-03 21:51 -2.74463 -43.50217 18427 ft 384 kts 281°
2026-05-03 21:51 -2.73726 -43.53695 17783 ft 383 kts 281°
2026-05-03 21:52 -2.73173 -43.56298 17330 ft 381 kts 281°
2026-05-03 21:52 -2.72625 -43.58884 16906 ft 378 kts 281°
2026-05-03 21:52 -2.72267 -43.60581 16630 ft 377 kts 281°
2026-05-03 21:52 -2.71728 -43.63145 16214 ft 374 kts 281°
2026-05-03 21:53 -2.71193 -43.65692 15805 ft 372 kts 281°
2026-05-03 21:53 -2.70663 -43.68224 15389 ft 370 kts 281°
2026-05-03 21:53 -2.69966 -43.71552 14845 ft 368 kts 282°
2026-05-03 21:53 -2.69437 -43.74060 14439 ft 367 kts 282°
2026-05-03 21:54 -2.69087 -43.75721 14158 ft 366 kts 282°
2026-05-03 21:54 -2.68561 -43.78218 13745 ft 365 kts 282°
2026-05-03 21:54 -2.68039 -43.80706 13302 ft 364 kts 282°
2026-05-03 21:54 -2.67527 -43.83149 12896 ft 362 kts 282°
2026-05-03 21:55 -2.67009 -43.85606 12490 ft 359 kts 282°
2026-05-03 21:55 -2.66492 -43.88060 12080 ft 357 kts 282°
2026-05-03 21:55 -2.66199 -43.90516 11667 ft 355 kts 269°
2026-05-03 21:55 -2.66459 -43.92956 11254 ft 352 kts 255°
2026-05-03 21:56 -2.67206 -43.95239 10852 ft 349 kts 248°
2026-05-03 21:56 -2.68066 -43.97512 10442 ft 348 kts 248°
2026-05-03 21:56 -2.68911 -43.99774 10150 ft 342 kts 248°
2026-05-03 21:56 -2.69728 -44.01981 10031 ft 331 kts 248°
2026-05-03 21:57 -2.70503 -44.04082 9918 ft 320 kts 248°
2026-05-03 21:57 -2.71270 -44.06155 9658 ft 314 kts 248°
2026-05-03 21:57 -2.72031 -44.08201 9249 ft 313 kts 248°
2026-05-03 21:57 -2.72779 -44.10209 8885 ft 311 kts 248°
2026-05-03 21:58 -2.73531 -44.12231 8517 ft 309 kts 248°
2026-05-03 21:58 -2.74282 -44.14248 8156 ft 308 kts 248°
2026-05-03 21:58 -2.75020 -44.16234 7567 ft 303 kts 248°
2026-05-03 21:58 -2.75752 -44.18205 6864 ft 300 kts 248°
2026-05-03 21:59 -2.76479 -44.20157 6185 ft 298 kts 248°
2026-05-03 21:59 -2.77190 -44.22067 5476 ft 295 kts 248°
2026-05-03 21:59 -2.77897 -44.23978 4836 ft 290 kts 250°
2026-05-03 21:59 -2.78255 -44.25929 4324 ft 281 kts 270°
2026-05-03 22:00 -2.77960 -44.27812 3851 ft 270 kts 291°
2026-05-03 22:00 -2.77131 -44.29390 3687 ft 244 kts 309°
2026-05-03 22:00 -2.76109 -44.30651 3660 ft 222 kts 311°
2026-05-03 22:00 -2.75171 -44.31797 3589 ft 203 kts 314°
2026-05-03 22:01 -2.74107 -44.32657 3242 ft 195 kts 334°
2026-05-03 22:01 -2.72918 -44.33092 3047 ft 172 kts 353°
2026-05-03 22:01 -2.71782 -44.33161 2897 ft 157 kts 10°
2026-05-03 22:01 -2.70741 -44.32944 2749 ft 150 kts 24°
2026-05-03 22:02 -2.69822 -44.32485 2583 ft 146 kts 38°
2026-05-03 22:02 -2.69031 -44.31864 2409 ft 145 kts 43°
2026-05-03 22:02 -2.68247 -44.31233 2234 ft 144 kts 42°
2026-05-03 22:02 -2.67467 -44.30604 2044 ft 144 kts 43°
2026-05-03 22:03 -2.66687 -44.29975 1856 ft 144 kts 42°
2026-05-03 22:03 -2.65919 -44.29356 1674 ft 144 kts 41°
2026-05-03 22:03 -2.65142 -44.28730 1484 ft 143 kts 41°
2026-05-03 22:03 -2.64366 -44.28104 1294 ft 143 kts 41°
2026-05-03 22:04 -2.63593 -44.27481 1110 ft 143 kts 40°
2026-05-03 22:04 -2.62830 -44.26865 943 ft 143 kts 41°
2026-05-03 22:04 -2.62050 -44.26236 785 ft 145 kts 41°
2026-05-03 22:04 -2.61255 -44.25595 604 ft 148 kts 41°
2026-05-03 22:05 -2.60450 -44.24945 383 ft 149 kts 40°
2026-05-03 22:05 -2.59636 -44.24293 204 ft 149 kts 40°
2026-05-03 22:05 -2.58902 -44.23698 162 ft 114 kts 39°
2026-05-03 22:05 -2.58529 -44.23395 163 ft 16 kts 36°
2026-05-03 22:06 -2.58457 -44.23423 162 ft 11 kts 311°
2026-05-03 22:06 -2.58449 -44.23486 163 ft 9 kts 255°
2026-05-03 22:06 -2.58457 -44.23508 163 ft 0 kts 248°
2026-05-03 22:07 -2.58460 -44.23514 163 ft 4 kts 248°
2026-05-03 22:07 -2.58473 -44.23549 163 ft 5 kts 249°
2026-05-03 22:07 -2.58480 -44.23573 163 ft 2 kts 270°
2026-05-03 22:07 -2.58472 -44.23588 163 ft 6 kts 307°
2026-05-03 22:08 -2.58433 -44.23607 163 ft 1 kts 342°
2026-05-03 22:08 -2.58432 -44.23607 163 ft 0 kts 342°